[Iaude] MPEC V150: 2023 VT4 [a=1.61,e=0.36,i=26.0,H=24.6]
    mpec at marsden.cfa.harvard.edu 
    mpec at marsden.cfa.harvard.edu
       
    Thu Nov  9 18:38:12 EST 2023
    
    
  
M.P.E.C. 2023-V150                             Issued 2023 November 9, 23:36 UT
     The Minor Planet Electronic Circulars contain information on unusual
         minor planets, routine data on comets and natural satellites,
         and occasional editorial announcements.  They are published
    on behalf of Division F of the International Astronomical Union by the
          Minor Planet Center, Smithsonian Astrophysical Observatory,
                          Cambridge, MA 02138, U.S.A.
			  
             Prepared using the Tamkin Foundation Computer Network
                              MPC at CFA.HARVARD.EDU
            URL https://www.minorplanetcenter.net/    ISSN 1523-6714
                                    2023 VT4                                    
Observations:
     K23V04T*1C2023 11 08.25472201 31 54.944-01 03 57.89         21.89GVEV150G96
     K23V04T 1C2023 11 08.25990601 31 52.068-01 02 52.04         21.64GVEV150G96
     K23V04T 1C2023 11 08.26507501 31 49.170-01 01 44.80         20.84GVEV150G96
     K23V04T 1C2023 11 08.27024301 31 46.333-01 00 39.46         21.16GVEV150G96
     K23V04T KC2023 11 08.32970701 31 13.400-00 47 53.74         20.92GVEV150I52
     K23V04T KC2023 11 08.33456201 31 10.693-00 46 51.06         20.92GVEV150I52
     K23V04T KC2023 11 08.34425901 31 05.354-00 44 45.96         21.10GVEV150I52
     K23V04T 6C2023 11 08.91764501 26 01.228+01 20 41.18         20.9 GVEV150Z84
     K23V04T 6C2023 11 08.93562701 25 50.936+01 24 41.48         20.4 GVEV150Z84
     K23V04T KC2023 11 09.12996001 24 07.450+02 08 19.00         21.26GVEV150I52
     K23V04T KC2023 11 09.13539901 24 04.340+02 09 32.70         20.87GVEV150I52
     K23V04T KC2023 11 09.13811901 24 02.690+02 10 09.20               VEV150I52
     K23V04T |C2023 11 09.14131 01 23 57.82 +02 12 18.9          20.1 VuEV150807
     K23V04T |C2023 11 09.14669 01 23 54.70 +02 13 31.1          19.9 VuEV150807
     K23V04T |C2023 11 09.15207 01 23 51.60 +02 14 44.1          20.4 VuEV150807
     K23V04T 1C2023 11 09.97262 01 16 09.98 +05 21 36.2          20.9 VXEV150033
     K23V04T 1C2023 11 09.97366 01 16 09.35 +05 21 51.1          20.9 VXEV150033
     K23V04T 1C2023 11 09.97469 01 16 08.74 +05 22 05.2          20.8 VXEV150033
Observer details:
033 Karl Schwarzschild Observatory, Tautenburg.  Observers S. Melnikov, C.
    Hogner, F. Ludwig, M. Hartmann, B. Stecklum.  Measurer B. Stecklum.
    1.34-m f/3 Schmidt + CCD.
807 Cerro Tololo Observatory, La Serena.  Observers T. Linder, R. Holmes, L.
    Horn.  0.61-m f/6.5 Dall-Kirkham Astrograph + CCD.
G96 Mt. Lemmon Survey.  Observer D. Rankin.  Measurers E. C. Beshore, D. Fay,
    J. B. Fazekas, D. C. Fuls, A. R. Gibbs, A. D. Grauer, H. Groeller, J. K.
    Hogan, R. A. Kowalski, S. M. Larson, G. J. Leonard, D. Rankin, R. L.
    Seaman, F. C. Shelly, K. W. Wierzchos.  1.5-m reflector + 10K CCD.
I52 Steward Observatory, Mt. Lemmon Station.  Observer H. Groeller.  Measurers
    E. C. Beshore, D. Fay, J. B. Fazekas, D. C. Fuls, A. R. Gibbs, A. D.
    Grauer, H. Groeller, J. K. Hogan, R. A. Kowalski, S. M. Larson, G. J.
    Leonard, D. Rankin, R. L. Seaman, F. C. Shelly, K. W. Wierzchos.  1.0-m
    prime focus + CCD.
Z84 Calar Alto-Schmidt.  Observers M. Micheli, R. Kresken.  Measurers R.
    Kresken, M. Micheli, F. Ocana, L. Conversi.  0.8-m f/3 Schmidt + CCD.
Orbital elements:
2023 VT4                                                 Earth MOID = 0.0852 AU
Epoch 2023 Sept. 13.0 TT = JDT 2460200.5                MPC                     
M 315.35448              (2000.0)            P               Q                  
n   0.48236727     Peri.   36.36109     +0.19348295     -0.93105483             
a   1.6102161      Node    44.94318     +0.76477552     -0.05438441             
e   0.3630295      Incl.   25.97189     +0.61455899     +0.36080361             
P   2.04           H   24.69          G   0.15           U   8                  
Residuals in seconds of arc
231108 G96  0.0   0.7+    231108 I52  0.0   0.3-    231109 807  0.2-  0.3+
231108 G96  0.0   0.0     231108 Z84  0.3+  0.1-    231109 807  0.1-  0.2-
231108 G96  0.5-  0.9+    231108 Z84  0.2+  0.1-    231109 807  0.2+  0.0
231108 G96  0.0   0.2-    231109 I52  0.5-  0.4+    231109 033  0.2+  0.2-
231108 I52  0.2+  0.2-    231109 I52  0.4-  0.5+    231109 033  0.0   0.0
231108 I52  0.1-  0.2-    231109 I52  1.7-  0.3+    231109 033  0.0   0.3-
Ephemeris:
2023 VT4                 a,e,i = 1.61, 0.36, 26                  q = 1.0257
Date    TT    R. A. (2000) Decl.     Delta      r    Elong.  Phase     V
2023 10 10    03 27 11.4 -35 59 47   0.3169  1.2099   125.3    42.4    24.3
...
2023 10 25    02 55 53.6 -29 35 50   0.1943  1.1425   136.1    37.1    22.9
...
2023 11 02    02 18 06.2 -18 32 10   0.1384  1.1110   146.9    29.2    21.9
...
2023 11 08    01 34 08.8 -01 57 27   0.1090  1.0899   153.8    23.7    21.2
2023 11 09    01 25 16.3 +01 39 41   0.1060  1.0866   153.5    24.0    21.1
2023 11 10    01 15 56.6 +05 28 51   0.1035  1.0834   152.5    25.0    21.1
...
2023 11 16    00 11 29.1 +29 23 00   0.1042  1.0658   135.3    40.7    21.5
...
2023 11 24    22 36 03.8 +50 20 44   0.1382  1.0468   111.9    61.1    22.7
...
2023 12 09    20 24 56.1 +61 26 30   0.2361  1.0272    93.6    73.2    24.2
A. U. Tomatic                (C) Copyright 2023 MPC           M.P.E.C. 2023-V150
    
    
More information about the Iaude
mailing list